Time,TemperatureF,DewpointF,PressureIn,WindDirection,WindDirectionDegrees,WindSpeedMPH,WindSpeedGustMPH,Humidity,HourlyPrecipIn,Conditions,Clouds,dailyrainin,SoftwareType,DateUTC
2013-06-18 00:07:00,53.5,45.0,30.01,WNW,302,3.0,-999.0,74,-99.99,,,0.00,weatherlink.com 1.10,2013-06-18 07:07:00,
2013-06-18 00:22:00,53.1,45.0,30.01,NNW,331,2.0,-999.0,75,-99.99,,,0.00,weatherlink.com 1.10,2013-06-18 07:22:00,
2013-06-18 00:37:00,52.3,45.0,30.01,North,359,4.0,-999.0,77,-99.99,,,0.00,weatherlink.com 1.10,2013-06-18 07:37:00,
2013-06-18 00:52:00,51.8,45.0,30.00,NNW,341,2.0,-999.0,78,-99.99,,,0.00,weatherlink.com 1.10,2013-06-18 07:52:00,
2013-06-18 01:07:00,51.3,45.0,30.00,NNE,18,2.0,-999.0,80,-99.99,,,0.00,weatherlink.com 1.10,2013-06-18 08:07:00,
2013-06-18 01:22:00,50.9,45.0,30.00,NE,54,5.0,-999.0,80,-99.99,,,0.00,weatherlink.com 1.10,2013-06-18 08:22:00,
2013-06-18 01:37:00,50.6,45.0,30.00,NNE,23,0.0,-999.0,80,-99.99,,,0.00,weatherlink.com 1.10,2013-06-18 08:37:00,
2013-06-18 01:52:00,50.4,45.0,29.99,ENE,60,3.0,-999.0,81,-99.99,,,0.00,weatherlink.com 1.10,2013-06-18 08:52:00,
2013-06-18 02:07:00,50.3,45.0,29.99,NNE,32,0.0,-999.0,81,-99.99,,,0.00,weatherlink.com 1.10,2013-06-18 09:07:00,
2013-06-18 02:22:00,50.5,45.0,29.99,North,356,0.0,-999.0,81,-99.99,,,0.00,weatherlink.com 1.10,2013-06-18 09:22:00,
2013-06-18 02:37:00,50.6,45.0,29.99,North,8,0.0,-999.0,80,-99.99,,,0.00,weatherlink.com 1.10,2013-06-18 09:37:00,
2013-06-18 02:52:00,50.6,45.0,29.99,NE,42,2.0,-999.0,80,-99.99,,,0.00,weatherlink.com 1.10,2013-06-18 09:52:00,
2013-06-18 03:07:00,50.4,44.0,29.98,North,1,3.0,-999.0,80,-99.99,,,0.00,weatherlink.com 1.10,2013-06-18 10:07:00,
2013-06-18 03:22:00,50.1,45.0,29.98,NNE,15,0.0,-999.0,82,-99.99,,,0.00,weatherlink.com 1.10,2013-06-18 10:22:00,
2013-06-18 03:37:00,50.2,45.0,29.99,WNW,300,0.0,-999.0,82,-99.99,,,0.00,weatherlink.com 1.10,2013-06-18 10:37:00,
2013-06-18 03:52:00,50.1,45.0,29.97,NNE,30,1.0,-999.0,82,-99.99,,,0.00,weatherlink.com 1.10,2013-06-18 10:52:00,
2013-06-18 04:07:00,49.7,45.0,29.98,NW,307,1.0,-999.0,84,-99.99,,,0.00,weatherlink.com 1.10,2013-06-18 11:07:00,
2013-06-18 04:22:00,49.5,45.0,29.99,NNE,25,1.0,-999.0,83,-99.99,,,0.00,weatherlink.com 1.10,2013-06-18 11:22:00,
2013-06-18 04:37:00,49.5,45.0,29.98,NNE,21,3.0,-999.0,83,-99.99,,,0.00,weatherlink.com 1.10,2013-06-18 11:37:00,
2013-06-18 04:52:00,49.7,45.0,29.98,North,3,3.0,-999.0,83,-99.99,,,0.00,weatherlink.com 1.10,2013-06-18 11:52:00,
2013-06-18 05:07:00,49.5,45.0,29.97,NNE,15,2.0,-999.0,84,-99.99,,,0.00,weatherlink.com 1.10,2013-06-18 12:07:00,
2013-06-18 05:22:00,49.1,44.0,29.97,North,6,3.0,-999.0,83,-99.99,,,0.00,weatherlink.com 1.10,2013-06-18 12:22:00,
2013-06-18 05:37:00,48.8,44.0,29.97,NNE,27,2.0,-999.0,83,-99.99,,,0.00,weatherlink.com 1.10,2013-06-18 12:37:00,
2013-06-18 05:52:00,48.9,44.0,29.97,NNE,15,3.0,-999.0,82,-99.99,,,0.00,weatherlink.com 1.10,2013-06-18 12:52:00,
2013-06-18 06:07:00,49.1,44.0,29.97,NNE,16,6.0,-999.0,81,-99.99,,,0.00,weatherlink.com 1.10,2013-06-18 13:07:00,
2013-06-18 06:22:00,49.1,44.0,29.98,NNW,335,3.0,-999.0,81,-99.99,,,0.00,weatherlink.com 1.10,2013-06-18 13:22:00,
2013-06-18 06:37:00,49.0,43.0,29.98,North,360,4.0,-999.0,81,-99.99,,,0.00,weatherlink.com 1.10,2013-06-18 13:37:00,
2013-06-18 06:52:00,49.0,44.0,29.97,NNW,332,3.0,-999.0,82,-99.99,,,0.00,weatherlink.com 1.10,2013-06-18 13:52:00,
2013-06-18 07:07:00,49.1,44.0,29.98,NNW,330,4.0,-999.0,81,-99.99,,,0.00,weatherlink.com 1.10,2013-06-18 14:07:00,
2013-06-18 07:22:00,49.1,44.0,29.97,NNE,13,3.0,-999.0,83,-99.99,,,0.00,weatherlink.com 1.10,2013-06-18 14:22:00,
2013-06-18 07:37:00,49.4,44.0,29.98,NW,325,3.0,-999.0,83,-99.99,,,0.00,weatherlink.com 1.10,2013-06-18 14:37:00,
2013-06-18 07:52:00,49.2,44.0,29.98,NNW,330,3.0,-999.0,83,-99.99,,,0.00,weatherlink.com 1.10,2013-06-18 14:52:00,
2013-06-18 08:07:00,49.2,45.0,29.98,NNE,13,3.0,-999.0,85,-99.99,,,0.00,weatherlink.com 1.10,2013-06-18 15:07:00,
2013-06-18 08:22:00,49.3,45.0,29.97,NNE,22,5.0,-999.0,86,-99.99,,,0.00,weatherlink.com 1.10,2013-06-18 15:22:00,
2013-06-18 08:37:00,49.6,46.0,29.97,North,353,4.0,-999.0,86,-99.99,,,0.00,weatherlink.com 1.10,2013-06-18 15:37:00,
2013-06-18 08:52:00,49.3,46.0,29.97,North,360,8.0,-999.0,87,-99.99,,,0.00,weatherlink.com 1.10,2013-06-18 15:52:00,
2013-06-18 09:07:00,49.1,45.0,29.97,NE,44,6.0,-999.0,87,-99.99,,,0.00,weatherlink.com 1.10,2013-06-18 16:07:00,
2013-06-18 09:22:00,49.0,45.0,29.97,NNW,341,6.0,-999.0,85,-99.99,,,0.00,weatherlink.com 1.10,2013-06-18 16:22:00,
2013-06-18 09:37:00,48.4,44.0,29.97,NNW,344,3.0,-999.0,86,-99.99,,,0.00,weatherlink.com 1.10,2013-06-18 16:37:00,
2013-06-18 09:52:00,47.9,45.0,29.97,NNW,347,4.0,-999.0,89,-99.99,,,0.03,weatherlink.com 1.10,2013-06-18 16:52:00,
2013-06-18 10:07:00,48.3,46.0,29.96,NNE,27,4.0,-999.0,90,-99.99,,,0.05,weatherlink.com 1.10,2013-06-18 17:07:00,
2013-06-18 10:22:00,49.7,47.0,29.96,North,6,6.0,-999.0,90,-99.99,,,0.05,weatherlink.com 1.10,2013-06-18 17:22:00,
2013-06-18 10:37:00,50.4,48.0,29.96,North,356,6.0,-999.0,90,-99.99,,,0.05,weatherlink.com 1.10,2013-06-18 17:37:00,
2013-06-18 10:52:00,49.8,46.0,29.97,North,358,6.0,-999.0,87,-99.99,,,0.05,weatherlink.com 1.10,2013-06-18 17:52:00,
2013-06-18 11:07:00,50.4,48.0,29.96,NNW,335,5.0,-999.0,92,-99.99,,,0.07,weatherlink.com 1.10,2013-06-18 18:07:00,
2013-06-18 11:22:00,51.4,47.0,29.96,North,3,8.0,-999.0,84,-99.99,,,0.07,weatherlink.com 1.10,2013-06-18 18:22:00,
2013-06-18 11:37:00,52.3,47.0,29.96,NE,46,6.0,-999.0,82,-99.99,,,0.07,weatherlink.com 1.10,2013-06-18 18:37:00,
2013-06-18 11:52:00,52.6,47.0,29.96,NNW,335,1.0,-999.0,81,-99.99,,,0.07,weatherlink.com 1.10,2013-06-18 18:52:00,
2013-06-18 12:07:00,53.8,47.0,29.96,NNW,335,6.0,-999.0,79,-99.99,,,0.07,weatherlink.com 1.10,2013-06-18 19:07:00,
2013-06-18 12:22:00,53.9,46.0,29.96,NNE,13,2.0,-999.0,74,-99.99,,,0.07,weatherlink.com 1.10,2013-06-18 19:22:00,
2013-06-18 12:37:00,54.1,46.0,29.95,North,359,5.0,-999.0,74,-99.99,,,0.07,weatherlink.com 1.10,2013-06-18 19:37:00,
2013-06-18 12:52:00,53.7,45.0,29.95,NNE,22,4.0,-999.0,73,-99.99,,,0.07,weatherlink.com 1.10,2013-06-18 19:52:00,
2013-06-18 13:07:00,53.7,45.0,29.94,NNW,329,6.0,-999.0,73,-99.99,,,0.07,weatherlink.com 1.10,2013-06-18 20:07:00,
2013-06-18 13:22:00,55.0,46.0,29.94,NNW,340,7.0,-999.0,72,-99.99,,,0.07,weatherlink.com 1.10,2013-06-18 20:22:00,
2013-06-18 13:37:00,55.9,46.0,29.93,North,349,7.0,-999.0,69,-99.99,,,0.07,weatherlink.com 1.10,2013-06-18 20:37:00,
2013-06-18 13:52:00,56.3,46.0,29.93,NNW,337,7.0,-999.0,69,-99.99,,,0.07,weatherlink.com 1.10,2013-06-18 20:52:00,
2013-06-18 14:07:00,57.5,47.0,29.92,NNW,332,10.0,-999.0,67,-99.99,,,0.07,weatherlink.com 1.10,2013-06-18 21:07:00,
2013-06-18 14:22:00,56.6,46.0,29.92,NNW,347,8.0,-999.0,67,-99.99,,,0.07,weatherlink.com 1.10,2013-06-18 21:22:00,
2013-06-18 14:37:00,56.9,46.0,29.92,NNW,342,9.0,-999.0,67,-99.99,,,0.07,weatherlink.com 1.10,2013-06-18 21:37:00,
2013-06-18 14:52:00,55.9,45.0,29.92,NNW,333,12.0,-999.0,66,-99.99,,,0.07,weatherlink.com 1.10,2013-06-18 21:52:00,
2013-06-18 15:07:00,54.9,44.0,29.92,North,354,11.0,-999.0,67,-99.99,,,0.07,weatherlink.com 1.10,2013-06-18 22:07:00,
2013-06-18 15:22:00,56.0,43.0,29.92,North,356,10.0,-999.0,63,-99.99,,,0.07,weatherlink.com 1.10,2013-06-18 22:22:00,
2013-06-18 15:37:00,55.7,43.0,29.92,NE,38,11.0,-999.0,63,-99.99,,,0.07,weatherlink.com 1.10,2013-06-18 22:37:00,
2013-06-18 15:52:00,55.5,45.0,29.92,NNW,342,8.0,-999.0,67,-99.99,,,0.07,weatherlink.com 1.10,2013-06-18 22:52:00,
2013-06-18 16:07:00,54.9,46.0,29.92,NNW,333,3.0,-999.0,72,-99.99,,,0.07,weatherlink.com 1.10,2013-06-18 23:07:00,
2013-06-18 16:22:00,53.1,45.0,29.93,WNW,301,6.0,-999.0,74,-99.99,,,0.07,weatherlink.com 1.10,2013-06-18 23:22:00,
2013-06-18 16:37:00,51.2,45.0,29.92,WNW,290,5.0,-999.0,78,-99.99,,,0.08,weatherlink.com 1.10,2013-06-18 23:37:00,
2013-06-18 16:52:00,51.8,46.0,29.93,NW,326,9.0,-999.0,80,-99.99,,,0.08,weatherlink.com 1.10,2013-06-18 23:52:00,
2013-06-18 17:07:00,51.1,46.0,29.93,NNE,25,9.0,-999.0,82,-99.99,,,0.08,weatherlink.com 1.10,2013-06-19 00:07:00,
2013-06-18 17:22:00,51.4,46.0,29.92,NNW,345,5.0,-999.0,83,-99.99,,,0.08,weatherlink.com 1.10,2013-06-19 00:22:00,
2013-06-18 17:37:00,51.5,47.0,29.92,NNE,14,7.0,-999.0,83,-99.99,,,0.08,weatherlink.com 1.10,2013-06-19 00:37:00,
2013-06-18 17:52:00,51.4,46.0,29.91,NNE,27,4.0,-999.0,81,-99.99,,,0.08,weatherlink.com 1.10,2013-06-19 00:52:00,
2013-06-18 18:07:00,51.7,46.0,29.91,NE,46,10.0,-999.0,80,-99.99,,,0.08,weatherlink.com 1.10,2013-06-19 01:07:00,
2013-06-18 18:22:00,51.8,45.0,29.91,NE,53,10.0,-999.0,78,-99.99,,,0.08,weatherlink.com 1.10,2013-06-19 01:22:00,
2013-06-18 18:37:00,51.2,45.0,29.91,North,11,7.0,-999.0,80,-99.99,,,0.08,weatherlink.com 1.10,2013-06-19 01:37:00,
2013-06-18 18:52:00,51.7,46.0,29.90,NE,40,10.0,-999.0,80,-99.99,,,0.08,weatherlink.com 1.10,2013-06-19 01:52:00,
2013-06-18 19:07:00,52.3,45.0,29.90,NNE,25,11.0,-999.0,75,-99.99,,,0.08,weatherlink.com 1.10,2013-06-19 02:07:00,
2013-06-18 19:22:00,52.0,44.0,29.91,NNE,31,9.0,-999.0,74,-99.99,,,0.08,weatherlink.com 1.10,2013-06-19 02:22:00,
2013-06-18 19:37:00,52.2,43.0,29.91,NNE,21,8.0,-999.0,71,-99.99,,,0.08,weatherlink.com 1.10,2013-06-19 02:37:00,
2013-06-18 19:52:00,51.8,43.0,29.90,NNE,30,7.0,-999.0,72,-99.99,,,0.08,weatherlink.com 1.10,2013-06-19 02:52:00,
2013-06-18 20:07:00,50.9,43.0,29.91,NNW,335,3.0,-999.0,73,-99.99,,,0.08,weatherlink.com 1.10,2013-06-19 03:07:00,
2013-06-18 20:22:00,50.5,43.0,29.91,NNW,335,2.0,-999.0,75,-99.99,,,0.08,weatherlink.com 1.10,2013-06-19 03:22:00,
2013-06-18 20:37:00,50.5,42.0,29.92,North,355,6.0,-999.0,73,-99.99,,,0.08,weatherlink.com 1.10,2013-06-19 03:37:00,
2013-06-18 20:52:00,50.3,43.0,29.92,NNW,332,9.0,-999.0,75,-99.99,,,0.08,weatherlink.com 1.10,2013-06-19 03:52:00,
2013-06-18 21:07:00,49.6,42.0,29.93,West,273,10.0,-999.0,74,-99.99,,,0.08,weatherlink.com 1.10,2013-06-19 04:07:00,
2013-06-18 21:22:00,46.0,42.0,29.94,West,275,8.0,-999.0,85,-99.99,,,0.09,weatherlink.com 1.10,2013-06-19 04:22:00,
2013-06-18 21:37:00,44.2,42.0,29.96,West,276,2.0,-999.0,90,-99.99,,,0.20,weatherlink.com 1.10,2013-06-19 04:37:00,
2013-06-18 21:52:00,43.5,41.0,29.96,NE,34,0.0,-999.0,90,-99.99,,,0.36,weatherlink.com 1.10,2013-06-19 04:52:00,
2013-06-18 22:07:00,43.2,41.0,29.96,ENE,58,1.0,-999.0,91,-99.99,,,0.44,weatherlink.com 1.10,2013-06-19 05:07:00,
2013-06-18 22:22:00,43.3,41.0,29.96,NE,34,0.0,-999.0,92,-99.99,,,0.50,weatherlink.com 1.10,2013-06-19 05:22:00,
2013-06-18 22:37:00,43.5,41.0,29.95,East,87,1.0,-999.0,92,-99.99,,,0.56,weatherlink.com 1.10,2013-06-19 05:37:00,
2013-06-18 22:52:00,43.5,41.0,29.95,East,81,4.0,-999.0,91,-99.99,,,0.61,weatherlink.com 1.10,2013-06-19 05:52:00,
2013-06-18 23:07:00,43.5,41.0,29.95,ENE,66,3.0,-999.0,91,-99.99,,,0.62,weatherlink.com 1.10,2013-06-19 06:07:00,
2013-06-18 23:22:00,43.5,41.0,29.95,East,101,0.0,-999.0,90,-99.99,,,0.62,weatherlink.com 1.10,2013-06-19 06:22:00,
2013-06-18 23:37:00,43.8,41.0,29.95,East,98,0.0,-999.0,89,-99.99,,,0.62,weatherlink.com 1.10,2013-06-19 06:37:00,
2013-06-18 23:52:00,43.8,41.0,29.95,ENE,75,0.0,-999.0,89,-99.99,,,0.62,weatherlink.com 1.10,2013-06-19 06:52:00,